map of BOG home
Great Circle Mapper logo
BOG - Airport
Location
City:  Bogotá, Colombia
Name:El Nuevo Dorado International Airport
ICAO / IATA:SKBO / BOG

Details
Type:Airport (Aerodrome, Airfield)
Use:International (customs port of entry)
Latitude:4°42'11"N (4.703056)
Longitude:74°08'18"W (-74.138332)
Elevation:8361 ft (2548 m)
Runways:2
Longest:12467 × 148 ft (3800 × 45 m), paved

Time
Time Zone:UTC-5
Local Time:

Weather
METAR:SKBO 260400Z 32004KT 9999 SCT017 BKN080 13/11 A3034
TAF:SKBO 260400Z 260606 VRB02KT 9999 SCT020 BKN080
TEMPO 2609/2611 7000 BR DZ SCT015
BECMG 2614/2616 31010KT
TEMPO 2617/2622 VCSH SCT018TCU PROB40 2619/2622 9000 DZRA SCT018CB
BECMG 2623/2701 28007KT FEW020 SCT090 TX18/2618Z TN08/2611Z

Related Locations
Nearby:
Farthest:TKG: 12379 mi / 19923 km
Bandar Lampung [Branti (Radin Inten Li)], ID

Find:

   beyond  
but within

Other Information
Maps:
NOTAMs:
Links:
Sources:

  
flag of Colombia   

Airport Diagram

Airport diagram for BOG

Airport diagram (OBSOLETE) from NGA

Sectional Chart

Flight Planning
at skyvector.com

Satellite Image

Google Maps Satellite View

 

Copyright © 2004-2014 Karl L. Swartz. All rights reserved.
The Great Circle Mapper name and logo are trademarks of the Great Circle Mapper.
All other trademarks mentioned herein belong to their respective owners.
Please see credits for attibutions and further copyright information.

  Follow gcmap on Facebook Follow gcmap on Twitter

hCard Microformat

Geo Microformat